ISS (ZARYA)

Last updated on Fri May 09 2025 00:02:09 GMT+0000 (Coordinated Universal Time)

1 25544U 98067A 25128.56886642 .00009246 00000+0 17328-3 0 9997 2 25544 51.6371 143.3092 0002526 92.2284 52.6728 15.49415554509017
UTC large
Height (km)
Speed (km/s)
/
Latitude / Longitude
Inclination (degrees)
Orbital Period (minutes)
Azimuth
Elevation
Range (km)
Doppler Factor

Next 0 passes for location: London (51.5072 / 0.1276)

Sorry there are no passes over London.